Location: Ahstedt
(52.2048°N, 10.1060°E)
Time: 23:41:55
(UTC+00:00)

Cosmos 1727 Rocket - Pass Details

Date: 18 January 2026
Orbit: 959 x 997 km, 82.9° (Epoch: 9 February)

Event Time Altitude Azimuth Distance (km) Brightness Sun altitude
Rises 06:18:52 0° 349° (N) 3,676 6.7 -8.9°
Reaches altitude 10° 06:21:23 10° 349° (N) 2,720 6.0 -8.6°
Maximum altitude 06:27:38 87° 262° (W) 972 4.0 -7.7°
Drops below altitude 10° 06:33:47 10° 174° (S) 2,688 6.8 -6.8°
Sets 06:36:16 0° 174° (S) 3,629 7.5 -6.5°
